Stations météo

réclame
Mon MeteoGroup
Rheinstetten, Allemagne (10731): Température de l'air & dewpoint: 11.07.2018 13:00:00 - 17.07.2018 13:00:00 (CEST)Rheinstetten, Allemagne (10731): Température de l'air 5cm & Température de l'air -5cm: 11.07.2018 13:00:00 - 17.07.2018 13:00:00 (CEST)Rheinstetten, Allemagne (10731): Température de l'air -20cm & Température de l'air -100cm: 11.07.2018 13:00:00 - 17.07.2018 13:00:00 (CEST)Rheinstetten, Allemagne (10731): Vitesse du vent & gusts: 11.07.2018 13:00:00 - 17.07.2018 13:00:00 (CEST)Rheinstetten, Allemagne (10731): Direction du vent: 11.07.2018 13:00:00 - 17.07.2018 13:00:00 (CEST)Rheinstetten, Allemagne (10731): reduced air pressure: 11.07.2018 13:00:00 - 17.07.2018 13:00:00 (CEST)Rheinstetten, Allemagne (10731): visibility: 11.07.2018 13:00:00 - 17.07.2018 13:00:00 (CEST)Rheinstetten, Allemagne (10731): Ensoleillement: 11.07.2018 13:00:00 - 17.07.2018 13:00:00 (CEST)Rheinstetten, Allemagne (10731): Quantités de précipitations: 11.07.2018 13:00:00 - 17.07.2018 13:00:00 (CEST)
Date & Time tt [°C] td [°C] tt 5cm [°C] tt -5cm [°C] tt -20cm [°C] tt -100cm [°C] ff [km/h] ff [knt] fx [km/h] fx [knt] dd ppp [hPa] vv [km] sd [min] rr [mm]
17.07.2018 13:00:00 28,5 14,0 31,7 31,2 24,4 23,2 17 9 25 14 W 1014,3 45 60 0,0
17.07.2018 12:00:00 27,6 14,0 30,6 28,3 23,6 23,2 17 9 26 14 WSW 1014,6 45 60 0,0
17.07.2018 11:00:00 25,9 13,6 27,8 25,9 23,0 23,3 18 10 26 14 SW 1014,6 45 60 0,0
17.07.2018 10:00:00 23,7 14,6 25,6 23,5 22,6 23,3 18 10 29 16 SW 1014,7 45 60 0,0
17.07.2018 09:00:00 21,4 13,9 22,9 21,4 22,4 23,2 17 9 27 14 SW 1014,8 45 60 0,0
17.07.2018 08:00:00 19,1 13,9 19,8 19,5 22,5 23,2 10 5 16 8 SW 1014,6 35 59 0,0
17.07.2018 07:00:00 16,3 14,1 15,3 18,5 22,9 23,2 8 4 12 7 SW 1014,4 30 28 0,0
17.07.2018 06:00:00 14,1 13,4 13,4 18,5 23,3 23,2 3 2 7 4 S 1014,3 25 0 0,0
17.07.2018 05:00:00 14,4 13,6 13,7 19,0 23,7 23,2 2 1 6 3 ENE 1013,9 13 0 0,0
17.07.2018 04:00:00 15,2 13,8 14,0 19,6 24,2 23,2 4 2 5 3 SE 1013,4 20 0 0,0
17.07.2018 03:00:00 15,7 14,7 14,6 20,2 24,7 23,2 2 1 5 3 SSE 1013,5 15 0 0,0
17.07.2018 02:00:00 16,3 14,9 15,1 20,9 25,3 23,2 3 2 12 6 S 1013,5 22 0 0,0
17.07.2018 01:00:00 17,7 15,3 16,0 21,7 25,9 23,2 0 0 9 5 N 1013,0 25 0 0,0
17.07.2018 00:00:00 20,1 14,2 17,3 22,5 26,5 23,3 5 3 10 5 SSE 1012,7 45 0 0,0
16.07.2018 23:00:00 21,9 13,6 20,0 23,4 27,1 23,3 9 5 21 11 E 1012,3 54 0 0,0
16.07.2018 22:00:00 21,2 16,4 19,5 25,1 27,7 23,3 6 3 8 4 NNE 1011,8 43 2 0,0
16.07.2018 21:00:00 26,1 12,9 23,7 26,7 28,1 23,3 4 2 10 5 NW 1011,0 63 17 0,0
16.07.2018 20:00:00 27,6 12,5 27,7 28,4 28,5 23,3 8 4 19 11 ENE 1010,4 70 46 0,0
16.07.2018 19:00:00 28,4 11,2 29,6 29,9 28,6 23,3 11 6 26 14 ENE 1010,4 52 60 0,0
16.07.2018 18:00:00 28,8 11,4 30,6 31,5 28,6 23,3 10 6 21 12 ESE 1010,4 57 60 0,0
16.07.2018 17:00:00 28,3 11,3 30,6 32,6 28,3 23,3 11 6 28 15 ESE 1010,8 50 60 0,0
16.07.2018 16:00:00 27,9 11,2 30,8 33,2 27,7 23,3 9 5 22 12 ESE 1011,3 50 60 0,0
16.07.2018 15:00:00 28,1 12,1 32,0 32,9 27,1 23,3 7 4 23 12 ENE 1011,7 45 60 0,0
16.07.2018 14:00:00 26,9 12,7 31,3 32,2 26,4 23,3 7 4 18 10 NNE 1012,5 40 55 0,0
16.07.2018 13:00:00 24,4 14,0 27,0 31,0 25,5 23,3 8 4 14 8 N 1013,2 40 52 0,0
16.07.2018 12:00:00 24,6 14,3 29,1 30,1 24,7 23,3 6 3 12 7 ENE 1013,5 35 60 0,0
16.07.2018 11:00:00 23,0 15,4 26,1 27,6 24,0 23,3 8 4 13 7 W 1013,9 35 60 0,0
16.07.2018 10:00:00 21,2 16,0 23,0 25,6 23,4 23,3 10 5 13 7 SSW 1014,1 35 60 0,0
16.07.2018 09:00:00 20,6 16,3 23,1 23,4 23,1 23,3 6 3 10 6 SSW 1014,4 35 55 0,0
16.07.2018 08:00:00 17,6 15,9 17,3 20,3 23,1 23,3 5 3 9 5 W 1014,6 40 41 0,0
16.07.2018 07:00:00 16,8 15,4 16,0 19,3 23,4 23,3 3 2 9 5 WNW 1014,6 40 8 0,0
16.07.2018 06:00:00 16,2 15,5 15,8 19,4 23,9 23,2 6 3 12 6 SE 1014,5 30 0 0,1
16.07.2018 05:00:00 16,4 15,5 16,0 19,8 24,7 23,2 4 2 18 10 ESE 1014,9 9 0 3,9
16.07.2018 04:00:00 16,8 16,0 16,7 20,4 25,3 23,2 10 5 17 9 NW 1015,7 0,7 0 13,5
16.07.2018 03:00:00 17,7 15,4 17,4 21,7 25,8 23,2 10 5 16 9 ESE 1015,8 15 0 0,0
16.07.2018 02:00:00 17,4 15,6 16,8 22,0 26,3 23,2 5 3 14 8 ESE 1015,1 13 0 0,0
16.07.2018 01:00:00 18,6 15,4 17,7 22,7 26,9 23,2 5 3 7 4 WSW 1014,7 21 0 0,0
16.07.2018 00:00:00 17,8 16,6 17,5 23,1 27,5 23,2 4 2 6 3 SSE 1014,7 12 0 0,0
15.07.2018 23:00:00 18,1 16,8 17,9 23,7 28,3 23,1 3 2 8 4 WSW 1014,8 15 0 0,0
15.07.2018 22:00:00 18,4 15,7 17,3 24,5 29,3 23,1 3 2 16 9 SE 1014,5 22 0 0,0
15.07.2018 21:00:00 19,1 16,0 18,0 26,6 30,2 23,1 12 7 16 9 E 1014,9 20 0 0,0
15.07.2018 20:00:00 20,5 16,8 19,8 28,6 31,1 23,1 3 1 14 8 NW 1014,7 21 0 3,4
15.07.2018 19:00:00 21,3 14,0 22,5 32,2 31,8 23,1 8 4 29 16 ENE 1014,6 33 0 0,0
15.07.2018 18:00:00 22,7 16,0 24,6 35,2 32,0 23,1 16 9 36 19 ESE 1013,8 19 0 0,0
15.07.2018 17:00:00 27,4 14,0 29,4 39,4 31,5 23,1 16 9 31 17 NNW 1013,0 45 45 0,0
15.07.2018 16:00:00 30,0 11,7 34,2 41,1 30,3 23,1 8 5 21 11 W 1013,0 35 59 0,0
15.07.2018 15:00:00 29,1 11,3 35,2 39,5 29,0 23,1 6 4 21 11 SE 1013,3 35 60 0,0
15.07.2018 14:00:00 27,5 13,1 33,3 36,9 27,8 23,0 10 5 26 14 SW 1014,5 35 59 0,0
15.07.2018 13:00:00 26,7 13,0 34,0 34,0 26,8 23,0 9 5 24 13 N 1015,0 25 49 0,0
15.07.2018 12:00:00 24,3 14,1 27,1 29,3 26,3 23,0 5 3 11 6 NE 1015,6 25 0 0,0
15.07.2018 11:00:00 23,7 13,7 26,6 29,7 25,7 23,0 6 4 12 6 NNW 1015,9 25 33 0,0
15.07.2018 10:00:00 22,0 13,2 24,5 27,5 25,2 22,9 7 4 14 8 WNW 1016,1 25 45 0,0
15.07.2018 09:00:00 20,9 14,2 22,5 24,3 25,1 22,9 8 4 11 6 WSW 1016,4 25 14 0,0
15.07.2018 08:00:00 19,4 13,8 20,8 23,0 25,2 22,9 6 4 13 7 SSW 1016,3 25 31 0,0
15.07.2018 07:00:00 17,8 13,6 17,6 22,0 25,6 22,8 10 5 19 10 SW 1016,0 35 0 0,0
15.07.2018 06:00:00 17,9 13,7 16,9 21,8 26,0 22,8 8 4 11 6 NE 1015,6 35 0 0,0
15.07.2018 05:00:00 15,8 13,0 15,1 22,0 26,6 22,8 7 4 10 5 NE 1015,9 16 0 0,0
15.07.2018 04:00:00 15,5 12,9 14,0 22,7 27,2 22,8 5 3 6 3 NNE 1016,1 18 0 0,0
15.07.2018 03:00:00 15,6 13,0 14,7 23,6 27,9 22,7 3 1 7 4 E 1016,1 17 0 0,0
15.07.2018 02:00:00 16,8 12,9 16,1 24,6 28,6 22,7 4 2 6 3 SE 1016,4 16 0 0,0
15.07.2018 01:00:00 17,8 13,1 16,7 25,7 29,4 22,7 2 1 10 5 ENE 1016,5 19 0 0,0
15.07.2018 00:00:00 18,6 14,8 16,9 26,9 30,2 22,7 5 3 6 3 SSW 1016,2 15 0 0,0
14.07.2018 23:00:00 20,3 13,3 18,5 28,5 31,0 22,7 0 0 8 4 N 1015,8 22 0 0,0
14.07.2018 22:00:00 24,9 11,3 21,9 30,5 31,8 22,7 7 4 13 7 NNE 1015,4 30 2 0,0
14.07.2018 21:00:00 27,6 10,6 26,5 33,0 32,4 22,7 11 6 21 12 NNE 1014,8 34 60 0,0
14.07.2018 20:00:00 29,4 10,1 31,0 35,7 32,7 22,7 12 7 19 10 N 1014,7 32 56 0,0
14.07.2018 19:00:00 30,0 10,3 32,8 37,8 32,7 22,6 10 6 17 9 N 1015,0 31 57 0,0
14.07.2018 18:00:00 30,2 10,7 33,2 39,4 32,4 22,6 10 5 21 12 NNW 1015,2 33 57 0,0
14.07.2018 17:00:00 30,7 6,8 35,5 40,9 31,8 22,6 12 6 24 13 NW 1015,8 35 60 0,0
14.07.2018 16:00:00 30,9 10,8 37,0 41,2 30,8 22,6 10 6 28 15 NNW 1016,0 35 60 0,0
14.07.2018 15:00:00 28,9 10,8 36,3 40,4 29,7 22,6 11 6 26 14 NW 1016,7 35 60 0,0
14.07.2018 14:00:00 29,0 11,8 35,8 38,8 28,4 22,6 14 8 25 14 N 1017,2 35 60 0,0
14.07.2018 13:00:00 28,1 13,0 34,6 36,7 27,2 22,6 12 6 24 13 NW 1017,7 35 60 0,0
14.07.2018 12:00:00 27,2 12,8 33,4 34,0 26,0 22,5 8 5 20 11 NNW 1018,3 35 60 0,0
14.07.2018 11:00:00 25,4 11,9 30,4 30,7 25,1 22,5 9 5 17 9 NNE 1018,6 35 60 0,0
14.07.2018 10:00:00 23,0 11,7 28,4 27,3 24,5 22,5 8 5 16 9 NNE 1019,0 35 60 0,0
14.07.2018 09:00:00 21,5 12,1 24,7 24,1 24,2 22,5 13 7 20 11 NE 1018,8 35 60 0,0
14.07.2018 08:00:00 19,7 12,3 20,9 21,9 24,4 22,4 13 7 20 11 NE 1018,7 35 60 0,0
14.07.2018 07:00:00 18,3 13,0 17,4 20,8 24,8 22,4 11 6 16 9 N 1018,7 35 25 0,0
14.07.2018 06:00:00 14,6 12,9 13,4 20,9 25,3 22,4 4 2 6 3 ENE 1018,6 35 0 0,0
14.07.2018 05:00:00 14,5 12,7 13,7 21,6 25,9 22,3 5 3 7 4 ENE 1018,6 19 0 0,0
14.07.2018 04:00:00 15,5 13,2 14,5 22,4 26,5 22,3 4 2 4 2 ENE 1018,7 25 0 0,0
14.07.2018 03:00:00 16,0 13,0 14,6 23,2 27,1 22,3 3 1 5 3 E 1018,8 29 0 0,0
14.07.2018 02:00:00 17,5 13,2 15,8 24,2 27,8 22,3 2 1 4 2 NNE 1018,8 35 0 0,0
14.07.2018 01:00:00 19,1 13,1 16,9 25,2 28,5 22,3 3 2 10 5 NNE 1018,8 37 0 0,0
14.07.2018 00:00:00 20,7 12,8 18,2 26,4 29,2 22,3 7 4 17 9 ENE 1018,5 39 0 0,0
13.07.2018 23:00:00 23,7 12,3 21,8 27,9 30,0 22,3 12 7 21 11 NNE 1018,2 47 0 0,0
13.07.2018 22:00:00 25,7 10,7 24,6 29,6 30,7 22,3 13 7 21 12 N 1017,5 60 0 0,0
13.07.2018 21:00:00 26,7 10,4 25,8 32,1 31,3 22,3 13 7 19 11 N 1017,0 54 57 0,0
13.07.2018 20:00:00 28,2 11,1 29,4 34,9 31,6 22,3 13 7 20 11 N 1016,6 43 60 0,0
13.07.2018 19:00:00 28,8 10,7 31,5 37,2 31,6 22,3 11 6 20 11 NNW 1016,7 47 60 0,0
13.07.2018 18:00:00 29,2 9,2 33,4 39,0 31,2 22,3 11 6 19 11 NNW 1017,1 45 60 0,0
13.07.2018 17:00:00 29,4 10,2 34,2 40,1 30,5 22,3 10 5 21 11 NW 1017,4 40 60 0,0
13.07.2018 16:00:00 28,9 10,1 34,5 40,3 29,5 22,3 10 5 20 11 WNW 1017,7 40 60 0,0
13.07.2018 15:00:00 28,4 10,2 35,5 39,5 28,2 22,3 13 7 22 12 N 1018,0 40 60 0,0
13.07.2018 14:00:00 27,3 11,5 34,2 37,8 26,9 22,3 12 7 22 12 N 1018,7 40 60 0,0
13.07.2018 13:00:00 26,9 12,3 32,6 35,6 25,6 22,3 11 6 16 9 WNW 1019,2 35 60 0,0
13.07.2018 12:00:00 25,8 13,1 32,5 32,5 24,3 22,3 9 5 19 10 NNW 1019,3 35 60 0,0
13.07.2018 11:00:00 24,3 13,0 29,7 29,2 23,3 22,3 11 6 22 12 NNE 1019,4 35 60 0,0
13.07.2018 10:00:00 22,7 12,7 26,9 25,7 22,6 22,3 9 5 17 9 NNE 1019,7 35 60 0,0
13.07.2018 09:00:00 19,6 13,2 22,9 22,5 22,3 22,2 5 3 9 5 N 1019,9 35 60 0,0
13.07.2018 08:00:00 17,0 12,3 18,6 19,8 22,3 22,2 4 2 6 3 SW 1019,7 35 60 0,0
13.07.2018 07:00:00 14,2 11,5 13,4 18,3 22,7 22,2 2 1 5 3 SSE 1019,9 35 31 0,0
13.07.2018 06:00:00 11,9 10,9 10,8 18,4 23,2 22,2 2 1 4 2 S 1019,8 25 0 0,0
13.07.2018 05:00:00 12,2 11,0 11,3 19,0 23,7 22,2 2 1 4 2 SE 1019,6 19 0 0,0
13.07.2018 04:00:00 12,5 11,3 11,4 19,6 24,3 22,2 3 2 4 2 ESE 1019,4 21 0 0,0
13.07.2018 03:00:00 13,3 11,6 12,1 20,4 24,9 22,2 3 1 8 4 SE 1019,1 22 0 0,0
13.07.2018 02:00:00 13,7 12,2 13,1 21,2 25,5 22,2 3 2 9 5 SSE 1019,1 21 0 0,0
13.07.2018 01:00:00 14,4 12,0 13,5 22,2 26,2 22,2 3 2 6 3 SSE 1019,0 26 0 0,0
13.07.2018 00:00:00 15,3 12,4 13,9 23,4 27,0 22,2 3 2 5 3 WSW 1018,9 25 0 0,0
12.07.2018 23:00:00 17,0 12,5 15,5 24,9 27,7 22,2 3 2 4 2 SE 1018,4 34 0 0,0
12.07.2018 22:00:00 20,3 11,1 17,3 26,9 28,4 22,2 0 0 15 8 N 1017,9 37 9 0,0
12.07.2018 21:00:00 23,9 10,2 23,2 29,3 28,9 22,2 11 6 19 11 N 1017,2 44 60 0,0
12.07.2018 20:00:00 24,7 10,6 26,4 31,9 29,1 22,2 11 6 21 11 NNE 1017,1 49 60 0,0
12.07.2018 19:00:00 24,8 11,4 26,7 34,0 28,9 22,2 12 6 22 12 NNW 1016,7 44 57 0,0
12.07.2018 18:00:00 25,6 11,0 29,9 36,0 28,3 22,2 13 7 20 11 WNW 1016,7 24 60 0,0
12.07.2018 17:00:00 25,6 11,0 30,7 36,2 27,4 22,3 9 5 18 10 NNW 1016,9 45 55 0,0
12.07.2018 16:00:00 25,0 11,5 30,7 34,8 26,4 22,3 9 5 23 12 W 1017,3 45 43 0,0
12.07.2018 15:00:00 24,5 11,9 29,3 32,5 25,6 22,3 5 3 13 7 SSW 1017,5 45 28 0,0
12.07.2018 14:00:00 22,7 12,5 28,8 32,1 24,6 22,3 8 4 19 11 NNW 1017,7 35 31 0,0
12.07.2018 13:00:00 21,4 12,3 24,2 30,0 23,7 22,3 13 7 22 12 N 1018,0 35 23 0,0
12.07.2018 12:00:00 20,7 12,7 27,1 28,0 22,8 22,3 7 4 13 7 NNW 1018,2 25 24 0,0
12.07.2018 11:00:00 19,1 12,7 22,2 23,9 22,4 22,3 5 3 13 7 WSW 1018,2 25 0 0,0
12.07.2018 10:00:00 17,9 10,9 19,6 21,6 22,3 22,3 9 5 16 8 SW 1018,3 35 0 0,0
12.07.2018 09:00:00 16,9 11,0 17,7 20,7 22,3 22,2 8 4 16 8 WSW 1017,8 35 0 0,0
12.07.2018 08:00:00 16,7 10,8 17,6 20,2 22,4 22,2 13 7 16 9 SW 1017,2 35 0 0,0
12.07.2018 07:00:00 16,3 10,5 16,3 19,6 22,7 22,2 10 6 15 8 SW 1017,0 30 0 0,0
12.07.2018 06:00:00 16,0 10,8 15,7 19,6 23,0 22,2 8 4 19 10 SW 1017,0 30 0 0,0
12.07.2018 05:00:00 16,5 10,7 16,3 20,1 23,4 22,2 13 7 17 9 SW 1016,7 33 0 0,0
12.07.2018 04:00:00 16,7 10,7 16,6 20,5 23,7 22,2 11 6 17 9 SW 1016,9 34 0 0,0
12.07.2018 03:00:00 16,9 10,8 16,8 21,0 24,1 22,2 9 5 19 10 WSW 1016,9 61 0 0,0
12.07.2018 02:00:00 17,2 10,8 17,1 21,4 24,6 22,3 11 6 16 9 SW 1016,9 65 0 0,0
12.07.2018 01:00:00 16,9 11,7 16,9 21,9 25,1 22,3 9 5 14 7 SW 1017,0 56 0 0,0
12.07.2018 00:00:00 16,9 11,9 16,8 22,6 25,6 22,3 7 4 10 5 SSW 1017,3 16 0 0,0
11.07.2018 23:00:00 16,5 11,6 16,4 23,5 26,3 22,3 5 3 5 3 S 1017,2 57 0 0,0
11.07.2018 22:00:00 17,4 11,8 15,7 24,8 26,9 22,3 4 2 10 5 SSW 1017,0 38 3 0,0
11.07.2018 21:00:00 20,1 9,9 19,6 26,9 27,4 22,3 6 3 11 6 WSW 1016,8 70 15 0,0
11.07.2018 20:00:00 22,0 9,1 23,8 28,9 27,6 22,3 9 5 14 8 WSW 1016,6 68 12 0,0
11.07.2018 19:00:00 21,1 8,8 22,2 30,9 27,6 22,3 9 5 16 9 WNW 1016,4 70 8 0,0
11.07.2018 18:00:00 22,4 8,6 25,5 33,8 27,1 22,4 7 4 19 11 W 1016,2 56 52 0,0
11.07.2018 17:00:00 22,2 8,4 26,3 33,9 26,3 22,4 12 6 21 12 WSW 1016,4 45 60 0,0
11.07.2018 16:00:00 21,4 8,7 26,5 32,2 25,6 22,4 11 6 24 13 NW 1016,5 45 39 0,0
11.07.2018 15:00:00 19,0 8,9 21,9 30,1 25,0 22,4 13 7 31 17 NNW 1017,0 35 13 0,0
11.07.2018 14:00:00 21,2 8,3 28,5 30,8 24,1 22,4 16 8 28 15 NNW 1016,5 35 37 0,0
11.07.2018 13:00:00 20,2 7,7 27,7 28,7 23,3 22,4 14 8 24 13 NW 1016,8 30 38 0,0

tt = Température de l'air
td = dewpoint
tt 5cm = Température de l'air 5cm
tt -5cm = Température de l'air -5cm
tt -20cm = Température de l'air -20cm
tt -100cm = Température de l'air -100cm
ff = Vitesse du vent
fx = gusts
dd = Direction du vent
ppp = reduced air pressure
vv = visibility
sd = Ensoleillement
rr = Quantités de précipitations

stations d'obs. à proximité